{"data":{"norad_id":47898,"intl_designator":"2021-021AQ","name":"STARLINK-2358","alt_names":[],"object_type":"PAYLOAD","status":"ACTIVE","operator":null,"country":"US","launch_date":"2021-03-14","launch_site_code":"AFETR","launch_vehicle":null,"mission":null,"orbit_class":"UNKNOWN","rcs_meters":null,"size_class":null,"mass_kg":null,"dimensions":null,"purposes":["comms"],"wikipedia_slug":null,"has_3d_model":false,"image_url":null,"decayed_at":null,"tle_current":{"epoch":"2026-09-20T00:34:27.494112Z","epoch_age_seconds":70365,"freshness":"FRESH","line1":"1 47898U 21021AQ  26263.02392933  .00001002  00000+0  44049-4 0  9999","line2":"2 47898  53.1599  83.6892 0001189  94.5476 265.5661 15.31710662305977","mean_motion":15.31710662,"eccentricity":0.0001189,"inclination_deg":53.1599,"raan_deg":83.6892,"arg_perigee_deg":94.5476,"mean_anomaly_deg":265.5661,"bstar":4.4049e-5,"rev_number":30597,"period_min":94.012533549891,"perigee_km":469.89388484704,"apogee_km":471.52254023859,"semimajor_km":6848.8452125428,"source":"CELESTRAK","updated_at":"2026-09-20T09:00:38.756868Z"}}}